EW5586 Weather Reports


time (UTC)temp
F
wind
direction
speed
knots
gust
knots
rain 1hr
in
rain 24hr
in
rain mn
in
humidity
%
barometer
mb
20260502205634 44 0 3.5 8.7 0.00 0.00 0.00 76 1012.5
20260502205135 44 247 4.3 10.4 0.00 0.00 0.00 76 1012.5
20260502204634 44 223 6.1 13.9 0.00 0.00 0.00 75 1012.5
20260502204132 44 222 7.8 13.9 0.00 0.00 0.00 75 1012.4
20260502203632 44 219 7.0 12.2 0.00 0.00 0.00 74 1012.5
20260502202633 44 202 4.3 8.7 0.00 0.00 0.00 74 1012.4
20260502202132 44 221 4.3 10.4 0.00 0.00 0.00 74 1012.4
20260502201632 44 211 6.1 13.0 0.00 0.00 0.00 74 1012.5
20260502201132 44 232 6.1 13.0 0.00 0.00 0.00 74 1012.4
20260502200633 45 219 4.3 11.3 0.00 0.00 0.00 75 1012.5
20260502200133 45 161 4.3 11.3 0.00 0.00 0.00 73 1012.5
20260502195132 45 240 7.8 15.6 0.00 0.00 0.00 73 1012.5
20260502194632 45 224 11.3 17.4 0.00 0.00 0.00 75 1012.5
20260502194131 45 216 11.3 17.4 0.00 0.00 0.00 77 1012.5
20260502193121 45 0 8.7 15.6 0.00 0.00 0.00 75 1012.6
20260502192618 46 233 6.1 12.2 0.00 0.00 0.00 72 1012.6
20260502192118 45 228 7.8 13.9 0.00 0.00 0.00 72 1012.5
20260502191617 45 221 10.4 15.6 0.00 0.00 0.00 74 1012.4
20260502191117 45 0 10.4 15.6 0.00 0.00 0.00 77 1012.4
20260502190614 45 222 9.6 13.0 0.00 0.00 0.00 78 1012.5
20260502190112 45 0 9.6 13.0 0.00 0.00 0.00 77 1012.5
20260502185612 45 201 8.7 11.3 0.00 0.00 0.00 78 1012.4
20260502185110 45 0 8.7 13.0 0.00 0.00 0.00 79 1012.4
20260502184610 45 194 8.7 13.0 0.00 0.00 0.00 77 1012.4
20260502184108 45 224 8.7 12.2 0.00 0.00 0.00 78 1012.3
20260502183605 45 219 8.7 12.2 0.00 0.00 0.00 78 1012.3
20260502183106 45 192 8.7 12.2 0.00 0.00 0.00 77 1012.3
20260502182606 44 0 8.7 12.2 0.00 0.00 0.00 77 1012.4
20260502182106 44 197 9.6 13.0 0.00 0.00 0.00 76 1012.4
20260502180558 44 217 11.3 14.8 0.00 0.00 0.00 75 1012.3
20260502164052 45 227 12.2 20.0 0.00 0.00 0.00 76 1012.3
20260502163550 45 198 11.3 15.6 0.00 0.00 0.00 76 1012.3
20260502163050 45 222 11.3 17.4 0.00 0.00 0.00 77 1012.3
20260502162550 44 217 10.4 17.4 0.00 0.00 0.00 77 1012.3
20260502162049 44 178 11.3 14.8 0.00 0.00 0.00 78 1012.4
20260502161049 45 0 10.4 15.6 0.00 0.00 0.00 79 1012.5
20260502160550 44 187 10.4 14.8 0.00 0.00 0.00 78 1012.5
20260502151843 0 0.0 0.0 0.00 0.00 0.00 1012.7
20260502150740 0 0.0 0.0 0.00 0.00 0.00 1012.7
20260502150152 0 0.0 0.0 0.00 0.00 0.00 1012.7
20260502130441 0 0.0 0.0 0.00 0.00 0.00 1012.8
20260502123746 0 0.0 0.0 0.00 0.00 0.00 1012.7
20260502123242 0 0.0 0.0 0.00 0.00 0.00 1012.7
20260502122147 0 0.0 0.0 0.00 0.00 0.00 1012.7
20260502121647 0 0.0 0.0 0.00 0.00 0.00 1012.6
20260502120642 0 0.0 0.0 0.00 0.00 0.00 1012.6
20260502115041 0 0.0 0.0 0.00 0.00 0.00 1012.7
20260502114450 0 0.0 0.0 0.00 0.00 0.00 1012.7
20260502113947 0 0.0 0.0 0.00 0.00 0.00 1012.7
20260502113448 0 0.0 0.0 0.00 0.00 0.00 1012.6
20260502112946 0 0.0 0.0 0.00 0.00 0.00 1012.6
20260502112444 0 0.0 0.0 0.00 0.00 0.00 1012.6
20260502111939 0 0.0 0.0 0.00 0.00 0.00 1012.4
20260502111349 0 0.0 0.0 0.00 0.00 0.00 1012.4
20260502110847 0 0.0 0.0 0.00 0.00 0.00 1012.3
20260502110344 0 0.0 0.0 0.00 0.00 0.00 1012.3
20260502105244 0 0.0 0.0 0.00 0.00 0.00 1012.2
20260502104653 0 0.0 0.0 0.00 0.00 0.00 1012.2
20260502103553 0 0.0 0.0 0.00 0.00 0.00 1012.2
20260502103047 0 0.0 0.0 0.00 0.00 0.00 1012.1
20260502101949 0 0.0 0.0 0.00 0.00 0.00 1012.0
20260502101448 0 0.0 0.0 0.00 0.00 0.00 1012.0
20260502100941 0 0.0 0.0 0.00 0.00 0.00 1011.9
20260502100427 0 0.0 0.0 0.00 0.00 0.00 1011.8
20260502091036 0 0.0 0.0 0.00 0.00 0.00 1011.4
20260502071151 41 205 6.1 8.7 0.00 0.00 0.00 91 1011.6
20260502070651 41 0 6.1 10.4 0.00 0.00 0.00 91 1011.7
20260502070151 41 0 6.1 10.4 0.00 0.00 0.00 91 1011.6
20260502065151 41 178 6.1 9.6 0.00 0.00 0.00 91 1011.7
20260502064653 41 0 7.0 9.6 0.00 0.00 0.00 91 1011.7
20260502064151 41 200 7.0 9.6 0.00 0.00 0.00 91 1011.7
20260502063651 41 196 6.1 9.6 0.00 0.00 0.00 91 1011.8
20260502063148 41 171 6.1 9.6 0.00 0.00 0.00 91 1011.8
20260502062649 41 0 6.1 10.4 0.00 0.00 0.00 90 1011.9
20260502062147 41 0 7.0 12.2 0.00 0.00 0.00 90 1011.9
20260502061646 42 196 7.8 12.2 0.00 0.00 0.00 90 1011.8
20260502061147 42 0 7.8 11.3 0.00 0.00 0.00 90 1011.8
20260502060647 42 201 7.8 11.3 0.00 0.00 0.00 90 1011.9
20260502060147 42 205 7.8 11.3 0.00 0.00 0.00 90 1011.8
20260502055648 42 170 8.7 13.0 0.00 0.00 0.00 90 1011.8
20260502055147 42 185 8.7 13.0 0.00 0.00 0.00 89 1011.8
20260502054647 42 197 8.7 12.2 0.00 0.00 0.00 89 1011.8
20260502054147 42 205 8.7 13.0 0.00 0.00 0.00 89 1011.9
20260502053647 42 0 9.6 13.0 0.00 0.00 0.00 88 1011.9
20260502053147 42 0 9.6 13.9 0.00 0.00 0.00 88 1011.9
20260502052647 42 188 9.6 13.9 0.00 0.00 0.00 88 1012.0
20260502052147 42 225 9.6 13.9 0.00 0.00 0.00 88 1012.0
20260502051647 42 197 8.7 13.9 0.00 0.00 0.00 88 1012.0
20260502051147 43 205 9.6 13.9 0.00 0.00 0.00 88 1012.0
20260502050647 43 207 10.4 13.9 0.00 0.00 0.00 88 1012.0
20260502045642 43 192 9.6 13.0 0.00 0.00 0.00 87 1012.0
20260502045138 43 204 9.6 14.8 0.00 0.00 0.00 87 1012.0
20260502044639 43 217 8.7 14.8 0.00 0.00 0.00 87 1012.0
20260502044137 43 205 8.7 12.2 0.00 0.00 0.00 87 1012.0
20260502043636 43 224 8.7 12.2 0.00 0.00 0.00 86 1012.1
20260502043137 43 205 8.7 12.2 0.00 0.00 0.00 86 1012.1
20260502042633 43 200 8.7 10.4 0.00 0.00 0.00 86 1012.0
20260502042134 43 199 7.8 10.4 0.00 0.00 0.00 86 1012.0
20260502041631 43 0 7.8 10.4 0.00 0.00 0.00 86 1012.0
20260502041131 43 188 7.8 12.2 0.00 0.00 0.00 85 1012.0
20260502040629 43 217 7.0 12.2 0.00 0.00 0.00 85 1012.0
20260502040126 44 194 7.0 9.6 0.00 0.00 0.00 85 1011.9
20260502035627 44 198 7.0 9.6 0.00 0.00 0.00 85 1011.9
20260502035125 43 219 6.1 8.7 0.00 0.00 0.00 85 1012.0
20260502034624 44 0 5.2 7.8 0.00 0.00 0.00 85 1012.0
20260502034125 43 211 5.2 7.0 0.00 0.01 0.00 85 1012.0
20260502032624 44 0 5.2 7.0 0.00 0.01 0.00 84 1011.9
20260502032126 44 205 5.2 7.0 0.00 0.01 0.00 84 1011.9
20260502031624 44 200 5.2 7.8 0.00 0.01 0.00 84 1012.0
20260502030625 44 197 6.1 7.8 0.00 0.01 0.00 83 1012.0
20260502030125 44 0 6.1 8.7 0.00 0.01 0.00 83 1012.0
20260502025624 44 194 6.1 9.6 0.00 0.01 0.00 83 1012.1
20260502025123 44 197 7.0 9.6 0.00 0.01 0.00 83 1012.1
20260502024623 44 209 7.8 9.6 0.00 0.01 0.00 82 1012.1
20260502024124 44 0 7.8 10.4 0.00 0.01 0.00 82 1012.1
20260502023622 44 180 7.8 10.4 0.00 0.01 0.00 81 1012.1
20260502023117 44 203 7.8 10.4 0.00 0.01 0.00 81 1012.1
20260502022610 44 203 7.8 10.4 0.00 0.01 0.00 80 1012.2
20260502022104 44 0 8.7 10.4 0.00 0.01 0.00 79 1012.2
20260502021558 44 198 8.7 11.3 0.00 0.01 0.00 79 1012.2
20260502021052 44 200 7.8 11.3 0.00 0.01 0.00 78 1012.2
20260502020547 45 197 7.8 10.4 0.00 0.01 0.00 78 1012.1
20260502020043 45 201 7.8 9.6 0.00 0.01 0.00 78 1012.1
20260502015542 45 195 7.8 11.3 0.00 0.01 0.00 77 1012.2
20260502015043 45 202 7.8 12.2 0.00 0.01 0.00 77 1012.2
20260502014543 45 198 8.7 12.2 0.00 0.01 0.00 76 1012.1
20260502014042 45 198 8.7 13.0 0.00 0.01 0.00 77 1012.1
20260502013542 45 0 7.8 13.0 0.00 0.01 0.00 75 1012.0
20260502013043 46 0 7.0 10.4 0.00 0.01 0.00 75 1012.0
20260502012042 46 202 7.8 11.3 0.00 0.01 0.00 70 1012.0
20260502011542 46 205 8.7 12.2 0.00 0.01 0.00 70 1012.0
20260502011042 46 225 8.7 13.9 0.00 0.01 0.00 70 1012.1
20260502010543 46 194 7.8 13.9 0.00 0.01 0.00 68 1012.0
20260502005543 46 221 8.7 13.9 0.00 0.01 0.00 69 1012.0
20260502005043 46 236 8.7 13.9 0.00 0.01 0.00 70 1012.0
20260502004543 46 193 8.7 13.0 0.00 0.01 0.00 68 1011.9
20260502004044 47 219 7.8 13.0 0.00 0.01 0.00 66 1011.9
20260502003536 47 192 3.5 13.0 0.00 0.01 0.00 61 1011.8
20260502003031 48 210 0.9 2.6 0.00 0.01 0.00 59 1011.7
20260502002524 48 218 0.0 2.6 0.00 0.01 0.00 58 1011.6
20260502001514 48 214 0.0 3.5 0.00 0.01 0.00 57 1011.5
20260502001007 48 221 0.9 5.2 0.00 0.01 0.00 56 1011.5
20260502000501 48 214 1.7 7.8 0.00 0.01 0.00 56 1011.5
20260501235448 48 239 5.2 13.0 0.00 0.01 0.00 53 1011.4
20260501234436 49 223 0.9 7.0 0.00 0.01 0.00 51 1011.3
20260501233931 49 225 0.0 0.9 0.00 0.01 0.00 52 1011.3
20260501233424 49 271 0.0 6.1 0.00 0.01 0.00 52 1011.2
20260501232918 49 301 0.9 6.1 0.00 0.01 0.00 52 1011.2
20260501232412 49 222 1.7 8.7 0.00 0.01 0.00 52 1011.2
20260501231906 49 280 3.5 8.7 0.00 0.01 0.00 51 1011.1
20260501231400 49 221 2.6 7.0 0.00 0.01 0.00 50 1011.1
20260501230853 49 0 2.6 5.2 0.00 0.01 0.00 50 1011.0
20260501230348 49 215 1.7 7.0 0.00 0.01 0.00 50 1011.0
20260501225842 49 221 1.7 7.0 0.00 0.01 0.00 49 1011.0
20260501224831 50 248 2.6 7.0 0.00 0.01 0.00 49 1010.9
20260501224324 50 225 0.9 5.2 0.00 0.01 0.00 49 1010.8
20260501223312 50 217 1.7 5.2 0.00 0.01 0.00 49 1010.8
20260501222806 50 232 2.6 5.2 0.00 0.01 0.00 49 1010.8
20260501222300 50 236 3.5 7.8 0.00 0.01 0.00 49 1010.8
20260501221754 50 172 3.5 7.8 0.00 0.01 0.00 48 1010.8
20260501221248 50 215 3.5 7.0 0.00 0.01 0.00 49 1010.7
20260501220743 49 0 3.5 7.0 0.00 0.01 0.00 50 1010.7
20260501220236 49 213 3.5 7.8 0.00 0.01 0.00 51 1010.7
20260501215224 48 212 4.3 7.8 0.00 0.02 0.00 67 1010.7
20260501214212 48 0 6.1 8.7 0.00 0.02 0.00 67 1010.8
20260501213706 48 211 6.1 8.7 0.00 0.02 0.00 66 1010.7
20260501213202 48 205 6.1 8.7 0.00 0.02 0.00 70 1010.7
20260501212654 48 217 6.1 8.7 0.00 0.02 0.00 66 1010.7
20260501211654 49 0 4.3 8.7 0.00 0.02 0.00 60 1010.6
20260501211156 49 222 6.1 9.6 0.00 0.02 0.00 59 1010.6
20260501210655 49 231 7.0 9.6 0.00 0.02 0.00 62 1010.6
20260501210154 49 215 7.0 9.6 0.00 0.02 0.00 60 1010.6